[[{"header":{"parameterUnit":"m.s-1","parameterCategory":1,"la1":30.2992,"la2":30.254,"lo1":-89.0895,"lo2":-89.0443,"dy":0.0025,"dx":0.0025,"nx":19,"ny":19,"refTime":"2026-05-17T03:00:00:Z","depth":0,"parameterNumber":2,"parameterNumberName":"U-component_of_WINDS"},"data":[0,0,0,-4.5512,-4.5513,-4.5558,-4.5558,-4.5628,-4.5629,0,0,0,0,0,0,0,0,0,0,0,-4.5506,-4.5506,-4.5512,-4.5513,-4.5558,-4.5558,-4.5628,-4.5629,0,0,0,0,0,0,0,0,0,0,0,-4.5505,-4.5506,-4.5507,-4.5513,-4.5558,-4.5558,-4.5628,-4.559,0,0,0,0,0,0,0,0,0,0,-4.5544,-4.5545,-4.5506,-4.5507,-4.5514,-4.5558,-4.5558,-4.5588,-4.5592,-4.5613,0,-4.5633,0,-4.5632,-4.5635,-4.5635,0,0,0,-4.5508,-4.5541,-4.5547,-4.5507,-4.5514,-4.5558,-4.5536,-4.559,-4.5595,-4.5619,-4.5634,-4.5636,-4.5634,-4.5635,-4.5635,-4.5774,-4.5775,0,0,-4.5506,-4.5517,-4.5544,-4.5551,-4.5543,-4.5535,-4.5538,-4.5593,-4.561,-4.5634,-4.5638,-4.5635,-4.5636,-4.5636,-4.5773,-4.5774,0,0,0,-4.5502,-4.5516,-4.552,-4.5548,-4.5555,-4.5536,-4.554,-4.5607,-4.5608,-4.5639,-4.5636,-4.5636,-4.5637,-4.5772,-4.5774,-4.5828,0,0,0,-4.55,-4.5513,-4.5519,-4.5527,-4.5554,-4.5582,-4.5553,-4.5604,-4.561,-4.5635,-4.5636,-4.5638,-4.5771,-4.5773,-4.5824,-4.585,0,0,0,-4.55,-4.5513,-4.5522,-4.5527,-4.5547,-4.558,-4.5584,-4.5605,-4.5609,-4.5635,-4.5638,-4.5771,-4.5773,-4.5821,-4.5845,-4.589,0,0,0,-4.5504,-4.5569,-4.5523,-4.5596,-4.5547,-4.5614,-4.5583,-4.5633,-4.5662,-4.5637,-4.5771,-4.5774,-4.582,-4.5842,-4.5886,-4.5928,-4.5947,0,0,-4.5593,-4.558,-4.5623,-4.5583,-4.5661,-4.5606,-4.5693,-4.5709,-4.5701,-4.5751,-4.5754,-4.5825,-4.5845,-4.5889,-4.6052,-4.6067,0,0,0,-4.5655,-4.5685,-4.5703,-4.5732,-4.5746,-4.5761,-4.5763,-4.5769,-4.5811,-4.5729,-4.5854,-4.5865,-4.5891,-4.591,-4.5923,-4.5944,-4.5784,-4.5783,-4.5783,-4.5795,-4.5783,-4.5852,-4.5846,-4.5874,-4.5877,-4.5899,-4.5908,-4.5887,-4.5917,-4.5931,-4.6031,-4.6054,-4.6064,-4.6086,-4.5954,-4.5954,-4.5954,-4.5954,-4.5923,-4.5964,-4.5937,-4.5993,-4.5981,-4.6029,-4.6036,-4.6019,-4.6063,-4.6019,-4.6041,-4.5993,-4.6081,-4.6099,-4.5958,-4.5958,-4.5957,-4.5957,-4.5956,-4.6012,-4.6029,-4.6037,-4.6079,-4.6113,-4.6106,-4.6149,-4.6137,-4.6125,-4.6147,-4.616,-4.6159,-4.6156,-4.6155,-4.6155,-4.6156,-4.6156,-4.6156,-4.6157,-4.61,-4.6107,-4.6145,-4.6168,-4.6186,-4.6209,-4.6215,-4.6233,-4.6249,-4.6236,-4.6236,-4.6212,-4.6092,-4.6061,-4.6162,-4.6161,-4.616,-4.616,-4.6159,-4.623,-4.62,-4.6258,-4.6276,-4.6304,-4.6339,-4.6324,-4.6362,-4.6375,-4.6397,-4.637,-4.6284,-4.627,-4.626,-4.6234,-4.6373,-4.6373,-4.6373,-4.6373,-4.6303,-4.6297,-4.6354,-4.6384,-4.6413,-4.6406,-4.6474,-4.6481,-4.6484,-4.6491,-4.6471,-4.6436,-4.6426,-4.6418,-4.6404,-4.638,-4.6553,-4.6553,-4.6553,-4.6383,-4.6378,-4.6437,-4.6439,-4.6461,-4.6481,-4.6544,-4.6581,-4.6578,-4.656,-4.6497,-4.649,-4.6434,-4.6417,-4.6394,-4.6373,-4.6328,0,0]},{"header":{"parameterUnit":"m.s-1","parameterCategory":1,"la1":30.2992,"la2":30.254,"lo1":-89.0895,"lo2":-89.0443,"dy":0.0025,"dx":0.0025,"nx":19,"ny":19,"refTime":"2026-05-17T03:00:00:Z","depth":0,"parameterNumber":3,"parameterNumberName":"V-component_of_WINDS"},"data":[0,0,0,3.4872,3.4869,3.4708,3.4707,3.4515,3.4514,0,0,0,0,0,0,0,0,0,0,0,3.493,3.4929,3.4872,3.4869,3.4708,3.4707,3.4516,3.4514,0,0,0,0,0,0,0,0,0,0,0,3.493,3.4929,3.4928,3.4868,3.4708,3.4707,3.4516,3.4632,0,0,0,0,0,0,0,0,0,0,3.4786,3.4849,3.4929,3.4928,3.4867,3.4708,3.4707,3.4637,3.4625,3.4595,0,3.4573,0,3.4541,3.4502,3.4502,0,0,0,3.486,3.486,3.4808,3.4928,3.4866,3.4708,3.4778,3.463,3.4616,3.4579,3.457,3.4562,3.4537,3.4501,3.45,3.4361,3.4361,0,0,3.4869,3.4906,3.4818,3.4799,3.4827,3.4783,3.4773,3.4621,3.4613,3.4569,3.4557,3.4534,3.45,3.4499,3.4361,3.4361,0,0,0,3.49,3.4912,3.4863,3.4807,3.4778,3.4779,3.4767,3.462,3.4601,3.4555,3.4532,3.4499,3.4497,3.4361,3.4361,3.4384,0,0,0,3.4905,3.493,3.4868,3.4888,3.4781,3.4697,3.477,3.4612,3.4594,3.4533,3.4499,3.4495,3.4361,3.4361,3.4384,3.4389,0,0,0,3.4937,3.4934,3.4914,3.4891,3.4823,3.4699,3.4671,3.4607,3.458,3.4501,3.4495,3.4362,3.4361,3.4384,3.4388,3.4364,0,0,0,3.498,3.4935,3.4915,3.4856,3.4825,3.4715,3.4671,3.4587,3.4523,3.4498,3.4361,3.4361,3.4384,3.4388,3.4364,3.435,3.4347,0,0,3.4944,3.4932,3.4894,3.4872,3.4776,3.4737,3.4643,3.4548,3.4506,3.4411,3.4407,3.4384,3.4388,3.4364,3.4321,3.4319,0,0,0,3.4895,3.4869,3.4835,3.4777,3.4705,3.4644,3.4561,3.4526,3.4444,3.4465,3.4367,3.4368,3.4353,3.4344,3.4343,3.4327,3.4359,3.4359,3.4359,3.4894,3.4846,3.478,3.4713,3.4657,3.4573,3.4523,3.4461,3.4426,3.4404,3.4376,3.4356,3.4347,3.4346,3.433,3.4364,3.4364,3.4364,3.4364,3.4836,3.4792,3.4749,3.4671,3.462,3.4553,3.447,3.4448,3.4378,3.4372,3.4356,3.4354,3.4346,3.4329,3.4365,3.4365,3.4365,3.4365,3.4365,3.4831,3.4801,3.4761,3.4674,3.4612,3.4544,3.448,3.4435,3.4391,3.4375,3.4341,3.434,3.4334,3.4362,3.4362,3.4362,3.4362,3.4362,3.4362,3.4841,3.4795,3.4747,3.467,3.4628,3.4566,3.4483,3.444,3.438,3.4352,3.4351,3.432,3.4354,3.4364,3.436,3.4361,3.4361,3.4361,3.4361,3.48,3.4803,3.4729,3.4687,3.4593,3.4536,3.448,3.4396,3.4353,3.4324,3.4295,3.4329,3.4313,3.4313,3.4321,3.4306,3.4306,3.4306,3.4306,3.4795,3.4784,3.47,3.4636,3.4568,3.4511,3.443,3.4365,3.4298,3.4269,3.4265,3.4271,3.4274,3.4256,3.4258,3.4265,3.4236,3.4236,3.4236,3.4768,3.4749,3.4688,3.4625,3.4549,3.4484,3.4407,3.4335,3.4259,3.4232,3.4245,3.4248,3.4258,3.4264,3.4237,3.4241,3.4252,0,0]}]]